Weather History for Shishmaref, AK

Change the Weather History Date:

Friday, May 4, 2012

  Actual Average Record
Temperature  
Mean Temperature 7 °F -  
Max Temperature 19 °F 25 °F 35 °F (2003)
Min Temperature -5 °F 14 °F -5 °F (2012)
Degree Days  
Heating Degree Days 58    
Moisture  
Dew Point 2 °F    
Average Humidity 84    
Maximum Humidity 100    
Minimum Humidity 38    
Precipitation  
Precipitation 0.00 in - - ()
Sea Level Pressure  
Sea Level Pressure 30.11 in    
Wind  
Wind Speed 3 mph (WNW)    
Max Wind Speed 9 mph    
Max Gust Speed -    
Visibility 9 miles    
Events      
Averages and records for this station are not official NWS values.
T = Trace of Precipitation, MM = Missing Value Source: NWS Daily Summary

Daily Weather History Graph

Daily Weather History Graph

Search for Another Location

Airport:

Trip Planner

Search our weather history database for the weather conditions in past years. The results will help you decide how hot, cold, wet, or windy it might be!

Date:

Astronomy

May. 04, 2012 Rise Set
Actual Time 6:04 AM AKDT 12:00 AM AKDT
Civil Twilight 4:27 AM AKDT 1:41 AM AKDT
Nautical Twilight Sun does not rise Sun does not rise
Astronomical Twilight Sun does not rise Sun does not rise
Moon 10:42 PM AKDT (5/4) 5:32 AM AKDT (5/4)
Length of Visible Light 21h 13m
Length of Day
17h 56m
Waxing Gibbous, 97% of the Moon is Illuminated
May 4
Waxing Gibbous
May 5
Full
May 12
Last Quarter
May 20
New
May 28
First Quarter

Hourly Weather History & Observations

Time (AKDT) Temp. Windchill Dew Point Humidity Pressure Visibility Wind Dir Wind Speed Gust Speed Precip Events Conditions
7:36 AM - - - N/A% 30.01 in - South 3.5 mph - N/A   Unknown
7:56 AM -4.0 °F -12.4 °F -23.8 °F 38% 30.02 in 10.0 mi SSE 3.5 mph - N/A   Overcast
8:16 AM -5.8 °F - -7.6 °F 92% 30.04 in 10.0 mi Calm Calm - N/A   Overcast
8:36 AM -5.8 °F - -7.6 °F 92% 30.04 in 10.0 mi Calm Calm - N/A   Overcast
8:56 AM -4.0 °F - -4.0 °F 100% 30.05 in 2.0 mi Calm Calm - N/A   Overcast
9:16 AM -2.2 °F -10.4 °F -2.2 °F 100% 30.05 in 4.0 mi SSE 3.5 mph - N/A   Overcast
9:36 AM -4.0 °F -12.4 °F -5.8 °F 92% 30.06 in 3.0 mi South 3.5 mph - N/A   Overcast
9:56 AM - - - N/A% 30.07 in 1.2 mi Calm Calm - N/A   Mostly Cloudy
10:16 AM -2.2 °F - -5.8 °F 85% 30.08 in 10.0 mi Calm Calm - N/A   Mostly Cloudy
10:36 AM -2.2 °F - -2.2 °F 100% 30.09 in 10.0 mi Calm Calm - N/A   Mostly Cloudy
10:56 AM -0.4 °F - -4.0 °F 85% 30.09 in 10.0 mi Calm Calm - N/A   Mostly Cloudy
11:16 AM -0.4 °F -8.3 °F -0.4 °F 100% 30.10 in 10.0 mi West 3.5 mph - N/A   Overcast
11:36 AM 1.4 °F -6.2 °F 1.4 °F 100% 30.11 in 2.0 mi NW 3.5 mph - N/A   Overcast
11:56 AM 3.2 °F -4.2 °F -11.2 °F 51% 30.11 in 10.0 mi WNW 3.5 mph - N/A   Mostly Cloudy
12:16 PM 3.2 °F -4.2 °F - N/A% 30.12 in 10.0 mi NW 3.5 mph - N/A   Partly Cloudy
12:36 PM 6.8 °F - 6.8 °F 100% 30.12 in 10.0 mi Calm Calm - N/A   Clear
12:56 PM 6.8 °F -2.0 °F -4.0 °F 61% 30.13 in 10.0 mi WNW 4.6 mph - N/A   Clear
1:16 PM 6.8 °F -0.1 °F -0.4 °F 72% 30.13 in 10.0 mi WNW 3.5 mph - N/A   Clear
1:36 PM 8.6 °F 0.1 °F - N/A% 30.13 in 10.0 mi West 4.6 mph - N/A   Clear
1:56 PM 8.6 °F -1.3 °F - N/A% 30.13 in 10.0 mi West 5.8 mph - N/A   Clear
2:16 PM 10.4 °F 2.2 °F 3.2 °F 73% 30.13 in 10.0 mi West 4.6 mph - N/A   Clear
2:36 PM 12.2 °F 2.9 °F 1.4 °F 62% 30.14 in 10.0 mi WNW 5.8 mph - N/A   Clear
2:56 PM 12.2 °F 1.7 °F 10.4 °F 92% 30.14 in 10.0 mi NW 6.9 mph - N/A   Clear
3:16 PM 12.2 °F 1.7 °F - N/A% 30.15 in 10.0 mi NW 6.9 mph - N/A   Clear
3:36 PM 14.0 °F 3.9 °F 10.4 °F 86% 30.15 in 10.0 mi NW 6.9 mph - N/A   Clear
3:56 PM 15.8 °F 5.1 °F 5.0 °F 62% 30.15 in 10.0 mi NW 8.1 mph - N/A   Clear
4:16 PM 15.8 °F 6.1 °F 10.4 °F 79% 30.15 in 10.0 mi NW 6.9 mph - N/A   Scattered Clouds
4:36 PM 17.6 °F 7.3 °F 17.6 °F 100% 30.16 in 10.0 mi NNW 8.1 mph - N/A   Overcast
4:56 PM 19.4 °F 9.5 °F 19.4 °F 100% 30.16 in 10.0 mi NW 8.1 mph - N/A   Overcast
5:16 PM 19.4 °F 8.6 °F 17.6 °F 93% 30.16 in 10.0 mi NNW 9.2 mph - N/A   Overcast
5:36 PM 19.4 °F 8.6 °F 15.8 °F 86% 30.16 in 10.0 mi NNW 9.2 mph - N/A   Overcast